Location: Oriwa
(40.7500°S, 175.3333°E)
Time: 13:18:15
(UTC+00:00)

Cosmos 1908 - Pass Details

Date: 03 February 2023
Orbit: 494 x 513 km, 82.5° (Epoch: 31 March)

Event Time Altitude Azimuth Distance (km) Brightness Sun altitude
Rises 15:17:34 0° 190° (S) 2,627 7.3 -21.2°
Reaches altitude 10° 15:19:43 10° 192° (SSW) 1,732 6.3 -20.9°
Maximum altitude 15:23:30 74° 276° (W) 530 3.0 -20.4°
Enters shadow 15:23:44 70° 312° (NW) 540 3.0 -20.4°
